Tracking 27422 objects as of 30-May-2023
HD Live streaming from Space Station
objects crossing your sky now

ATLAS 41E DEB

Track ATLAS 41E DEB now!
10-day predictions


NORAD ID: 15615
Int'l Code: 1985-021E
Perigee: 708.8 km
Apogee: 771.5 km
Inclination: 107.8 °
Period: 99.5 minutes
Semi major axis: 7111 km
RCS: 0.0182 m2 (small)
Launch date: March 13, 1985
Source: United States (US)
Launch site: AIR FORCE WESTERN TEST RANGE (AFWTR)

Note: This is SATELLITE DEBRIS
Your satellite tracking list
Your tracking list is empty




NASA's NSSDC Master Catalog

Two Line Element Set (TLE):
1 15615U 85021E   23148.81726479  .00000841  00000-0  26227-3 0  9991
2 15615 107.8148 102.5606 0044085 186.6716 239.7409 14.47735958  6457
Source of the keplerian elements: AFSPC